Preview of NWS' New Version of Forecast
This preview is not operational and should not be used for support decisions.

Regional Weather Roundup (RWR)

Issued by Gray - Portland, ME (GYX)

                            
000
ASUS41 KGYX 172105
RWRGYX
WEATHER ROUNDUP FOR MAINE AND NEW HAMPSHIRE
NATIONAL WEATHER SERVICE GRAY ME
500 PM EDT SAT AUG 17 2019

MEZ002-005-006-010-012-015-018-020-021-024-026-027-029-172200-
MAINE
  
CITY           SKY/WX    TMP DP  RH WIND       PRES   REMARKS
PORTLAND       CLOUDY    69  64  84 S10       30.05F                  
SANFORD        CLOUDY    70  67  90 SE8       30.03F                  
BAR HARBOR     CLOUDY    68  62  81 S10       30.09F                  
WISCASSET      CLOUDY    67  62  84 VRB5      30.08F                  
ROCKLAND       CLOUDY    66  62  87 SE7       30.07F                  
FRYEBURG       CLOUDY    69  65  86 E6        30.04F                  
LEWISTONAUBURN CLOUDY    66  65  96 SE8       30.05F                  
AUGUSTA        CLOUDY    67  63  87 S7G16     30.07F                  
WATERVILLE     CLOUDY    67  63  87 VRB3      30.05S                  
BANGOR         CLOUDY    68  61  78 S9        30.08S                  
GREENVILLE       N/A     63  62  97 S8        30.05F                  
MILLINOCKET    CLOUDY    68  63  84 CALM      30.07F                  
HOULTON        CLOUDY    69  62  78 VRB7      30.05F                  
PRESQUE ISLE   PTSUNNY   67  61  81 S7        30.06F                  
FRENCHVILLE    CLOUDY    64  61  90 SE6       30.04S                  
CARIBOU        CLOUDY    68  60  75 S12       30.05S                  
$$

NHZ002-005-008-009-011-012-014-172200-
NEW HAMPSHIRE
  
CITY           SKY/WX    TMP DP  RH WIND       PRES   REMARKS
PORTSMOUTH     CLOUDY    71  66  85 SE10      30.01F                  
ROCHESTER      CLOUDY    72  65  78 SE7       30.02F                  
NASHUA         PTSUNNY   80  72  76 SE9       29.99F                  
MANCHESTER     PTSUNNY   80  69  69 SE13      29.97F                  
CONCORD        FAIR      76  68  76 SE8       29.99F                  
LACONIA        CLOUDY    71  68  90 NE7       30.01F                  
PLYMOUTH       CLOUDY    72  66  82 CALM      30.00F                  
BERLIN         FAIR      74  64  71 SE10      30.01F                  
WHITEFIELD     FAIR      79  63  57 VRB5      29.98F                  
JAFFREY        FAIR      81  68  64 VRB7      30.00F                  
KEENE          FAIR      82  69  64 S12       29.96F                  
LEBANON        PTSUNNY   82  67  60 SE7       29.94F                  
MT WASHINGTON  FOG       54  54 100 W25G33      N/A  VSB 1/8          
$$

VTZ005-007-008-172200-
VERMONT
  
CITY           SKY/WX    TMP DP  RH WIND       PRES   REMARKS
ST JOHNSBURY     N/A     74  70  87 MISG      29.94F                  
MONTPELIER     FAIR      80  65  59 S3        30.00F                  
BURLINGTON     CLOUDY    82  67  60 S8        29.92F                  
$$

MAZ007-012-024-CTZ003-RIZ002-NYZ038-NYZ072-172200-
SOUTHERN NEW ENGLAND AND NY
  
CITY           SKY/WX    TMP DP  RH WIND       PRES   REMARKS
BOSTON         PTSUNNY   71  65  81 E10       30.01F                  
WORCESTER      FAIR      76  69  79 S12       30.03S                  
NANTUCKET      FAIR      76  71  85 E13       30.02F                  
PROVIDENCE     PTSUNNY   79  73  82 S8        30.00F                  
HARTFORD       PTSUNNY   85  69  58 S14       29.96F                  
ALBANY         PTSUNNY   87  66  49 S17G24    29.90F                  
NEW YORK CITY  PTSUNNY   83  72  69 NE8       29.95F                  
$$

ANZ081-ANZ082-ANZ150-NHZ014-MEZ023>029-172200-
COASTAL MARINE OBSERVATIONS
  
STATION/POSITION TIME  TEMP    WIND        PRES    WAVE
                       AIR SEA DIR/SP/G            HT/PER
                 (UTC) (F)     (DEG/KT/KT) (MB)    (FT/S)
MATINICUS ROCK   2050   61                 1018.0F
ISLE OF SHOALS   2000   65     110/  9/  9 1016.7
JEFFREYS LEDGE   2038      68                N/A     2/ 7
CASHES LEDGE BUO 2050   65 65  110/  6/  6 1018.4F   2/ 7
GEORGES BANK BUO 2050   72 70   90/  8/ 10 1018.4F   3/ 7
$$

.............KEY..............
   WCI - WIND CHILL
   TC  - TEMPERATURE IN CELSIUS
   VSB - VISIBILITY IN MILES
   HX  - HEAT INDEX
   FAIR- INDICATES FEW OR NO CLOUDS BELOW 12,000 FT, WITH NO 
         SIGNIFICANT WEATHER AND/OR OBSTRUCTIONS TO VISIBILITY.